Location: Bun Machan
(52.1403°N, 7.3744°W)
Time: 02:07:17
(UTC+00:00)

COBE Rocket - Pass Details

Date: 14 July 2020
Orbit: 679 x 783 km, 97.1° (Epoch: 04 August)

Event Time Altitude Azimuth Distance (km) Brightness Sun altitude
Exits shadow 02:23:53 - 153° (SSE) 3,010 6.7 -12.5°
Reaches altitude 10° 02:25:45 10° 150° (SSE) 2,268 6.1 -12.4°
Maximum altitude 02:30:39 60° 72° (ENE) 847 4.5 -12.1°
Drops below altitude 10° 02:35:26 10° 353° (N) 2,218 7.3 -11.7°
Sets 02:37:43 0° 350° (N) 3,127 8.1 -11.6°
